Regional Weather Roundup
Issued by NWS Kansas City/Pleasant Hill, MO

Home | Current Version | Previous Version | Text Only | Print | Product List | Glossary On
Versions: 1 2 3 4 5 6 7 8 9 10 11 12 13 14 15 16 17 18 19 20 21 22 23 24 25 26 27 28 29 30 31 32 33 34 35 36 37 38 39 40 41 42 43 44 45 46 47 48 49 50
000
ASUS43 KEAX 260411
RWREAX

WEATHER ROUNDUP FOR EASTERN KANSAS AND NORTHWEST MISSOURI
NATIONAL WEATHER SERVICE KANSAS CITY/PLEASANT HILL MO
1000 PM CST SUN JAN 25 2015

KSZ040-057-103>105-MOZ028-029-037-043-260500-
...KANSAS CITY METROPOLITAN AREA...

CITY           SKY/WX    TMP DP  RH WIND       PRES   REMARKS
K.C. INTL      PTCLDY    32  28  85 CALM      30.11R
K.C. DOWNTOWN  PTCLDY    35  28  75 N5        30.12R WCI  31
LEES SUMMIT    CLOUDY    35  28  75 N8        30.11R WCI  29
OLATHE - IXD   CLEAR     32  29  88 NW7       30.12R WCI  26
OLATHE - OJC   CLEAR     34  29  82 NW5       30.10R WCI  30
LAWRENCE       CLOUDY    29  26  89 N3        30.13R

$$

MOZ001>008-011>017-020>025-030>033-038>040-044>046-053-054-260500-
...NORTHERN AND CENTRAL MISSOURI...

CITY           SKY/WX    TMP DP  RH WIND       PRES   REMARKS
ST. JOSEPH     MOCLDY    28  26  92 CALM      30.11S
MOSBY          PTCLDY    32  28  86 NW3       30.12R
WARRENSBURG    CLOUDY    34  30  86 N5        30.10R WCI  30
WHITEMAN AFB   CLOUDY    34  28  79 N13       30.09R WCI  25
CLINTON        CLOUDY    36  32  87 N14G24    30.12R WCI  27
SEDALIA        CLOUDY    33  29  85 N12       30.09R WCI  24
WARSAW         NOT AVBL
MARSHALL       CLOUDY    36  32  87 N7        30.09S WCI  30
CHILLICOTHE      N/A     34  29  82 CALM      30.11R
MOBERLY        CLOUDY    32  27  80 NW6       30.07S WCI  26
KIRKSVILLE     CLOUDY    30  27  88 N8        30.08R WCI  22

$$

MOZ041-047>049-056>058-063>065-088>090-097-260500-
...EASTERN AND SOUTHERN MISSOURI...

CITY           SKY/WX    TMP DP  RH WIND       PRES   REMARKS
ST. LOUIS INTL CLOUDY    32  26  78 N14       29.99R WCI  22
SPIRIT OF STL  CLOUDY    32  27  81 N13       30.00R WCI  22
COLUMBIA       CLOUDY    32  28  85 NW13      30.05R WCI  22
JEFFERSON CITY CLOUDY    33  28  81 NW10      30.07R WCI  25
HANNIBAL       CLOUDY    28  23  80 N8        30.06S WCI  20
ROLLA          CLOUDY    30  28  92 NW13      30.00R WCI  20
LEBANON        CLOUDY    34  30  86 NW8       30.03R WCI  27
OSAGE BEACH    CLOUDY    34  28  80 NW6       30.05R WCI  29
SPRINGFIELD    CLOUDY    36  32  85 N14       30.04R WCI  27
BRANSON        CLOUDY    37  32  81 NW12      30.04R WCI  30
NEVADA         CLOUDY    37  28  70 NW13G18   30.12R WCI  29
JOPLIN         CLOUDY    39  31  72 NW10      30.10S WCI  32
WEST PLAINS    CLOUDY    34  30  85 NW12G22   29.98R WCI  25

$$

IAZ060-094-KSZ022-034>040-054-083-096-NEZ052-066-093-260500-
...KANSAS...SOUTHEAST NEBRASKA AND IOWA...

CITY           SKY/WX    TMP DP  RH WIND       PRES   REMARKS
TOPEKA         CLOUDY    36  27  69 CALM      30.11F
MANHATTAN      CLEAR     27  25  92 CALM      30.11F
EMPORIA        CLEAR     32  28  85 W3        30.12S
CHANUTE        CLOUDY    38  31  76 NW5       30.12S WCI  34
WICHITA        CLEAR     30  25  81 CALM      30.12F
OMAHA          CLOUDY    35  31  85 E3        30.08S
LINCOLN        CLEAR     30  27  88 CALM      30.09S
FALLS CITY     CLOUDY    32  28  85 SE3       30.10F
LAMONI         CLOUDY    31  27  85 N7        30.08R WCI  24
DES MOINES     CLOUDY    33  24  69 N7        30.08S WCI  27

$$



USA.gov is the U.S. government's official web portal to all federal, state and local government web resources and services.